| time (UTC) | temp C | wind direction | speed KPH | gust KPH | rain 1hr cm | rain 24hr cm | rain mn cm | humidity % | barometer mb |
| 20260510190017 | 4 | 251 | 0.0 | 0.0 | 0.00 | 0.00 | 0.00 | 91 | 1033.5 |
| 20260510184516 | 3 | 251 | 0.0 | 0.0 | 0.00 | 0.00 | 0.00 | 91 | 1033.4 |
| 20260510183015 | 3 | 251 | 0.0 | 0.0 | 0.00 | 0.00 | 0.00 | 91 | 1033.3 |
| 20260510181514 | 2 | 251 | 0.0 | 0.0 | 0.00 | 0.00 | 0.00 | 91 | 1033.2 |
| 20260510180012 | 2 | 251 | 0.0 | 0.0 | 0.00 | 0.00 | 0.00 | 91 | 1032.9 |
| 20260510174512 | 3 | 251 | 0.0 | 0.0 | 0.00 | 0.00 | 0.00 | 91 | 1032.8 |
| 20260510173011 | 3 | 251 | 0.0 | 0.0 | 0.00 | 0.00 | 0.00 | 91 | 1032.6 |
| 20260510171511 | 3 | 251 | 0.0 | 0.0 | 0.00 | 0.00 | 0.00 | 91 | 1032.7 |
| 20260510170010 | 3 | 251 | 0.0 | 0.0 | 0.00 | 0.00 | 0.00 | 91 | 1032.6 |
| 20260510164520 | 2 | 251 | 0.0 | 0.0 | 0.00 | 0.00 | 0.00 | 91 | 1032.8 |
| 20260510163005 | 3 | 251 | 0.0 | 0.0 | 0.00 | 0.00 | 0.00 | 91 | 1032.9 |
| 20260510161502 | 3 | 251 | 0.0 | 0.0 | 0.00 | 0.00 | 0.00 | 91 | 1033.0 |
| 20260510160100 | 3 | 251 | 0.0 | 0.0 | 0.00 | 0.00 | 0.00 | 91 | 1033.0 |
| 20260510154602 | 3 | 251 | 0.0 | 0.0 | 0.00 | 0.00 | 0.00 | 91 | 1033.1 |
| 20260510153101 | 3 | 251 | 0.0 | 0.0 | 0.00 | 0.00 | 0.00 | 90 | 1033.1 |
| 20260510151556 | 3 | 251 | 0.0 | 0.0 | 0.00 | 0.00 | 0.00 | 90 | 1033.2 |
| 20260510150119 | 4 | 251 | 0.0 | 0.0 | 0.00 | 0.00 | 0.00 | 90 | 1033.3 |
| 20260510144552 | 4 | 251 | 0.0 | 0.0 | 0.00 | 0.00 | 0.00 | 90 | 1033.3 |
| 20260510143047 | 5 | 251 | 0.0 | 0.0 | 0.00 | 0.00 | 0.00 | 90 | 1033.3 |
| 20260510141545 | 5 | 251 | 0.0 | 0.0 | 0.00 | 0.00 | 0.00 | 90 | 1033.3 |
| 20260510140041 | 6 | 251 | 0.0 | 0.0 | 0.00 | 0.00 | 0.00 | 89 | 1033.3 |
| 20260510134539 | 6 | 251 | 0.0 | 0.0 | 0.00 | 0.00 | 0.00 | 89 | 1033.3 |
| 20260510133035 | 7 | 251 | 0.0 | 0.0 | 0.00 | 0.00 | 0.00 | 88 | 1033.2 |
| 20260510131532 | 7 | 251 | 0.0 | 0.0 | 0.00 | 0.00 | 0.00 | 88 | 1033.2 |
| 20260510130029 | 8 | 251 | 0.0 | 0.0 | 0.00 | 0.00 | 0.00 | 87 | 1033.2 |
| 20260510124529 | 8 | 251 | 0.0 | 0.0 | 0.00 | 0.00 | 0.00 | 85 | 1033.2 |
| 20260510123028 | 10 | 251 | 0.0 | 0.0 | 0.00 | 0.00 | 0.00 | 84 | 1033.2 |
| 20260510121527 | 11 | 251 | 0.0 | 0.0 | 0.00 | 0.00 | 0.00 | 84 | 1033.2 |
| 20260510120027 | 11 | 251 | 0.0 | 0.0 | 0.00 | 0.00 | 0.00 | 85 | 1033.2 |
| 20260510114528 | 11 | 248 | 0.0 | 0.0 | 0.00 | 0.00 | 0.00 | 86 | 1033.2 |
| 20260510113024 | 11 | 248 | 0.0 | 4.8 | 0.00 | 0.00 | 0.00 | 86 | 1033.1 |
| 20260510111524 | 11 | 247 | 0.0 | 0.0 | 0.00 | 0.00 | 0.00 | 87 | 1033.0 |
| 20260510110026 | 11 | 247 | 0.0 | 0.0 | 0.00 | 0.00 | 0.00 | 87 | 1033.0 |
| 20260510104522 | 11 | 247 | 0.0 | 0.0 | 0.00 | 0.00 | 0.00 | 87 | 1032.9 |
| 20260510103020 | 11 | 247 | 0.0 | 0.0 | 0.00 | 0.00 | 0.00 | 88 | 1032.7 |
| 20260510101519 | 11 | 247 | 0.0 | 0.0 | 0.00 | 0.00 | 0.00 | 88 | 1032.6 |
| 20260510100017 | 11 | 247 | 0.0 | 0.0 | 0.00 | 0.00 | 0.00 | 88 | 1032.5 |
| 20260510094534 | 11 | 247 | 0.0 | 0.0 | 0.00 | 0.00 | 0.00 | 88 | 1032.5 |
| 20260510093015 | 11 | 247 | 0.0 | 0.0 | 0.00 | 0.00 | 0.00 | 88 | 1032.4 |
| 20260510091514 | 11 | 247 | 0.0 | 0.0 | 0.00 | 0.00 | 0.00 | 88 | 1032.3 |
| 20260510090012 | 11 | 247 | 0.0 | 0.0 | 0.00 | 0.00 | 0.00 | 88 | 1032.0 |
| 20260510084517 | 10 | 247 | 0.0 | 0.0 | 0.00 | 0.00 | 0.00 | 87 | 1031.7 |
| 20260510083008 | 11 | 247 | 0.0 | 0.0 | 0.00 | 0.00 | 0.00 | 86 | 1031.6 |
| 20260510081506 | 11 | 247 | 0.0 | 0.0 | 0.00 | 0.00 | 0.00 | 84 | 1031.1 |
| 20260510080007 | 11 | 247 | 0.0 | 0.0 | 0.00 | 0.00 | 0.00 | 82 | 1030.9 |
| 20260510074502 | 12 | 247 | 0.0 | 0.0 | 0.00 | 0.00 | 0.00 | 81 | 1030.6 |
| 20260510073005 | 12 | 247 | 0.0 | 0.0 | 0.00 | 0.00 | 0.00 | 79 | 1030.3 |
| 20260510071501 | 13 | 247 | 0.0 | 0.0 | 0.00 | 0.00 | 0.00 | 77 | 1030.1 |
| 20260510070100 | 13 | 247 | 0.0 | 3.2 | 0.00 | 0.00 | 0.00 | 75 | 1029.8 |
| 20260510064605 | 14 | 313 | 0.0 | 0.0 | 0.00 | 0.00 | 0.00 | 72 | 1029.5 |
| 20260510063100 | 15 | 313 | 0.0 | 6.4 | 0.00 | 0.00 | 0.00 | 69 | 1029.3 |
| 20260510061601 | 15 | 256 | 0.0 | 4.8 | 0.00 | 0.00 | 0.00 | 64 | 1029.2 |
| 20260510060059 | 17 | 319 | 1.6 | 6.4 | 0.00 | 0.00 | 0.00 | 59 | 1029.1 |
| 20260510054557 | 17 | 328 | 3.2 | 8.0 | 0.00 | 0.00 | 0.00 | 56 | 1029.0 |
| 20260510053056 | 18 | 277 | 1.6 | 6.4 | 0.00 | 0.00 | 0.00 | 50 | 1028.8 |
| 20260510051603 | 19 | 329 | 0.0 | 6.4 | 0.00 | 0.00 | 0.00 | 51 | 1028.6 |
| 20260510050059 | 19 | 304 | 0.0 | 0.0 | 0.00 | 0.00 | 0.00 | 48 | 1028.5 |
| 20260510044604 | 20 | 342 | 0.0 | 0.0 | 0.00 | 0.00 | 0.00 | 47 | 1028.5 |
| 20260510043052 | 20 | 300 | 0.0 | 0.0 | 0.00 | 0.00 | 0.00 | 46 | 1028.4 |
| 20260510041547 | 21 | 344 | 0.0 | 0.0 | 0.00 | 0.00 | 0.00 | 44 | 1028.4 |
| 20260510040049 | 21 | 301 | 0.0 | 0.0 | 0.00 | 0.00 | 0.00 | 44 | 1028.4 |
| 20260510034544 | 21 | 85 | 0.0 | 0.0 | 0.00 | 0.00 | 0.00 | 44 | 1028.4 |
| 20260510033042 | 21 | 283 | 0.0 | 0.0 | 0.00 | 0.00 | 0.00 | 45 | 1028.3 |
| 20260510031539 | 20 | 325 | 0.0 | 0.0 | 0.00 | 0.00 | 0.00 | 47 | 1028.5 |
| 20260510030050 | 20 | 322 | 0.0 | 0.0 | 0.00 | 0.00 | 0.00 | 48 | 1028.6 |
| 20260510024537 | 20 | 308 | 0.0 | 0.0 | 0.00 | 0.00 | 0.00 | 48 | 1028.8 |
| 20260510023035 | 20 | 286 | 0.0 | 0.0 | 0.00 | 0.00 | 0.00 | 51 | 1029.0 |
| 20260510021534 | 20 | 284 | 0.0 | 0.0 | 0.00 | 0.00 | 0.00 | 52 | 1029.2 |
| 20260510020031 | 20 | 320 | 0.0 | 0.0 | 0.00 | 0.00 | 0.00 | 52 | 1029.4 |
| 20260510014527 | 19 | 287 | 0.0 | 0.0 | 0.00 | 0.00 | 0.00 | 53 | 1029.5 |
| 20260510013023 | 18 | 263 | 0.0 | 0.0 | 0.00 | 0.00 | 0.00 | 55 | 1029.7 |
| 20260510011520 | 18 | 271 | 0.0 | 0.0 | 0.00 | 0.00 | 0.00 | 55 | 1029.8 |
| 20260510010016 | 18 | 263 | 0.0 | 0.0 | 0.00 | 0.00 | 0.00 | 57 | 1029.9 |
| 20260510004512 | 17 | 263 | 0.0 | 0.0 | 0.00 | 0.00 | 0.00 | 61 | 1030.0 |
| 20260510003021 | 17 | 261 | 0.0 | 0.0 | 0.00 | 0.00 | 0.00 | 62 | 1030.1 |
| 20260510001504 | 16 | 261 | 0.0 | 0.0 | 0.00 | 0.00 | 0.00 | 63 | 1030.1 |
| 20260510000103 | 14 | 125 | 0.0 | 0.0 | 0.00 | 0.00 | 0.00 | 70 | 1030.2 |
| 20260509234556 | 12 | 125 | 0.0 | 0.0 | 0.00 | 0.00 | 0.00 | 84 | 1030.3 |
| 20260509233050 | 10 | 125 | 0.0 | 0.0 | 0.00 | 0.00 | 0.00 | 90 | 1030.3 |
| 20260509231547 | 9 | 125 | 0.0 | 0.0 | 0.00 | 0.00 | 0.00 | 91 | 1030.5 |
| 20260509230043 | 8 | 125 | 0.0 | 0.0 | 0.00 | 0.00 | 0.00 | 91 | 1030.5 |
| 20260509224538 | 6 | 125 | 0.0 | 0.0 | 0.00 | 0.00 | 0.00 | 91 | 1030.6 |
| 20260509223035 | 5 | 125 | 0.0 | 0.0 | 0.00 | 0.00 | 0.00 | 91 | 1030.6 |
| 20260509221533 | 3 | 127 | 0.0 | 0.0 | 0.00 | 0.00 | 0.00 | 91 | 1030.5 |
| 20260509220030 | 2 | 127 | 0.0 | 0.0 | 0.00 | 0.00 | 0.00 | 91 | 1030.4 |
| 20260509214527 | 1 | 127 | 0.0 | 0.0 | 0.00 | 0.00 | 0.00 | 91 | 1030.4 |
| 20260509213024 | 1 | 127 | 0.0 | 0.0 | 0.00 | 0.00 | 0.00 | 91 | 1030.3 |
| 20260509211522 | 1 | 127 | 0.0 | 0.0 | 0.00 | 0.00 | 0.00 | 91 | 1030.1 |
| 20260509210021 | 1 | 127 | 0.0 | 0.0 | 0.00 | 0.00 | 0.00 | 91 | 1029.7 |
| 20260509204520 | 1 | 127 | 0.0 | 0.0 | 0.00 | 0.00 | 0.00 | 91 | 1029.6 |
| 20260509203015 | 1 | 127 | 0.0 | 0.0 | 0.00 | 0.00 | 0.00 | 91 | 1029.4 |
| 20260509201513 | 1 | 127 | 0.0 | 0.0 | 0.00 | 0.00 | 0.00 | 91 | 1029.2 |
| 20260509200012 | 1 | 127 | 0.0 | 0.0 | 0.00 | 0.00 | 0.00 | 91 | 1029.1 |
| 20260509194509 | 1 | 127 | 0.0 | 0.0 | 0.00 | 0.00 | 0.00 | 91 | 1028.9 |
| 20260509193007 | 1 | 127 | 0.0 | 0.0 | 0.00 | 0.00 | 0.00 | 91 | 1028.7 |
| 20260509191510 | 1 | 127 | 0.0 | 0.0 | 0.00 | 0.00 | 0.00 | 91 | 1028.5 |